This is the latest recevied weather packets stored in our database for station/object XE2KK-10. If no packets are shown the sender has not sent any weather packets the latest 10 day(s).
| Time | Temp. | Humidity | Pressure | Rain* | Wind** | Luminosity | Snow |
|---|---|---|---|---|---|---|---|
| 1777996752 | 29.44° C | 49% | 1009.4 hPa | 0 mm | - | 685 W/m² | - |
| 1777996453 | 28.89° C | 50% | 1009.3 hPa | 0 mm | - | 670 W/m² | - |
| 1777996153 | 28.33° C | 52% | 1009.5 hPa | 0 mm | - | 655 W/m² | - |
| 1777995853 | 27.78° C | 53% | 1009.6 hPa | 0 mm | - | 658 W/m² | - |
| 1777995553 | 27.22° C | 54% | 1009.7 hPa | 0 mm | - | 665 W/m² | - |
| 1777995252 | 27.78° C | 54% | 1009.6 hPa | 0 mm | - | 665 W/m² | - |
| 1777994952 | 27.22° C | 54% | 1009.4 hPa | 0 mm | - | 655 W/m² | - |
| 1777994653 | 27.22° C | 55% | 1009.4 hPa | 0 mm | - | 606 W/m² | - |
| 1777994353 | 27.78° C | 53% | 1009.5 hPa | 0 mm | - | 575 W/m² | - |
| 1777994053 | 26.67° C | 55% | 1009.5 hPa | 0 mm | - | 439 W/m² | - |
| 1777993753 | 26.67° C | 55% | 1009.4 hPa | 0 mm | - | 459 W/m² | - |
| 1777993452 | 26.11° C | 57% | 1009.2 hPa | 0 mm | - | 489 W/m² | - |
| 1777993152 | 26.11° C | 57% | 1009.3 hPa | 0 mm | - | 471 W/m² | - |
| 1777992853 | 26.11° C | 58% | 1009.3 hPa | 0 mm | - | 448 W/m² | - |
| 1777992553 | 25.56° C | 58% | 1009.7 hPa | 0 mm | - | 455 W/m² | - |
| 1777992253 | 25.56° C | 58% | 1009.3 hPa | 0 mm | - | 449 W/m² | - |
| 1777991953 | 25.56° C | 59% | 1009.6 hPa | 0 mm | - | 389 W/m² | - |
| 1777991652 | 25° C | 60% | 1009.4 hPa | 0 mm | - | 386 W/m² | - |
| 1777991352 | 24.44° C | 62% | 1009.3 hPa | 0 mm | - | 356 W/m² | - |
| 1777991053 | 24.44° C | 62% | 1009.3 hPa | 0 mm | - | 337 W/m² | - |
| 1777990790 | 24.44° C | 64% | 1009.4 hPa | 0 mm | - | 318 W/m² | - |
| 1777990753 | 24.44° C | 64% | 1009.4 hPa | 0 mm | - | 318 W/m² | - |
| 1777990486 | 24.44° C | 64% | 1009.4 hPa | 0 mm | - | 315 W/m² | - |
| 1777990453 | 24.44° C | 64% | 1009.4 hPa | 0 mm | - | 315 W/m² | - |
| 1777989852 | 23.33° C | 66% | 1009.3 hPa | 0 mm | - | 250 W/m² | - |
* Rain latest hour (hover to see other rain measurements)
** Current wind speed in m/s (hover to see current wind gust speed)